Location: Newark
(10.3333°N, 37.7167°E)
Time: 22:48:43
(UTC+00:00)

LightSail 2 - Pass Details

Date: 29 January 2020
Orbit: 700 x 722 km, 24.0° (Epoch: 19 February)

Event Time Altitude Azimuth Distance (km) Brightness Sun altitude
Rises 16:58:52 0° 295° (WNW) 3,072 9.2 -21.3°
Reaches altitude 10° 17:01:17 10° 296° (WNW) 2,158 8.3 -21.8°
Maximum altitude 17:06:24 79° 23° (NNE) 718 5.0 -23.0°
Enters shadow 17:07:07 65° 89° (E) 774 5.0 -23.2°
